Location: Unspecified
(0.0000°N, 0.0000°E)
Time: 21:59:16
(UTC+00:00)

KKS-1 - Visible Passes

Search period start: 18 January 2018 00:00
Search period end: 28 January 2018 00:00
Orbit: 637 x 651 km, 98.3° (Epoch: 17 January)

Date Brightness Start Highest point End Pass type
(mag) Time Alt. Az. Time Alt. Az. Time Alt. Az.
18 Jan ? 05:15:37 10° S 05:20:01 65° WSW 05:24:24 10° NNW visible
19 Jan ? 04:06:46 10° E 04:08:23 12° ENE 04:10:00 10° NE visible
19 Jan ? 05:40:50 10° SSW 05:44:40 29° WSW 05:48:29 10° NW visible
20 Jan ? 04:29:21 10° SE 04:33:02 26° ENE 04:36:41 10° NNE visible
21 Jan ? 04:53:19 10° SSE 04:57:41 57° ENE 05:02:00 10° N visible
22 Jan ? 05:17:57 10° S 05:22:20 62° WSW 05:26:41 10° NNW visible
23 Jan ? 04:08:51 10° ESE 04:10:42 12° ENE 04:12:33 10° NE visible
23 Jan ? 05:43:13 10° SSW 05:46:58 27° WSW 05:50:42 10° NW visible
24 Jan ? 04:31:36 10° SE 04:35:20 27° ENE 04:39:03 10° NNE visible
25 Jan ? 04:55:37 10° SSE 04:59:59 61° ENE 05:04:19 10° N visible
26 Jan ? 05:20:17 10° S 05:24:38 58° WSW 05:28:57 10° NNW visible
27 Jan ? 04:10:56 10° ESE 04:13:00 13° ENE 04:15:03 10° NE visible
27 Jan ? 05:45:35 10° SSW 05:49:17 26° WSW 05:52:56 10° NW visible
